User: anonymous   Login
Location: Newark
(54.8972°N, 99.8189°W)
Time: 23:00:54
(UTC+00:00)
Language:

Transit 2A - Orbit

View from above orbital plane
View from above orbital plane
View from above satellite
View from above satellite

Ground track
Ground track

The orbit data is extracted from the following two-line orbital elements,

1    45U 60007A   19326.83792929 -.00000036  00000-0  17889-4 0  9999
2    45  66.6942 208.0132 0248426 107.2929 255.5514 14.33656623 92946
Epoch (UTC): 22 November 2019 20:06:37
Eccentricity: 0.0248426
inclination: 66.6942°
perigee height: 602 km
apogee height: 957 km
right ascension of ascending node: 208.0132°
argument of perigee: 107.2929°
revolutions per day: 14.33656623
mean anomaly at epoch: 255.5514°
orbit number at epoch: 9294

The dashed part of the orbit path shows where the satellite is in the earth's shadow,  

DLR